Wetbulb
58.75 58.66 58.53 58.26 58.37 58.53 58.82 59.13 59.43 60.43 61.02 61.32 61.49 61.97 62.19 62.21 61.75 67.28 66.72 68.43 70.26 74.11 71.19 67.31 67.68 67.34 68.25 66.83 67.65 68.50 61.27 59.19 59.89 60.62 62.63 65.87 64.34 67.59 69.94 68.05 69.49 70.31 70.99 72.06 73.30
58.41 58.53 58.51 58.50 58.41 58.32 58.51 58.81 59.00 59.23 60.42 60.86 61.18 61.88 62.25 62.38 65.15 65.15 71.31 75.74 74.41 74.59 66.98 65.44 64.86 65.94 64.64 64.26 66.56 63.59 60.18 59.34 63.17 63.87 63.36 65.10 65.28 66.12 67.36 66.73 68.12 70.15 72.24 73.02 72.66
58.18 58.20 58.09 58.01 58.09 58.32 58.37 58.48 58.50 58.84 59.42 60.53 60.88 61.79 62.06 63.55 63.93 65.29 75.31 75.60 75.77 72.53 68.26 66.70 66.63 65.54 62.60 64.15 63.20 62.82 60.16 61.88 62.50 63.78 64.12 65.00 65.70 67.04 65.63 64.41 67.45 69.08 70.81 71.39 71.69
57.90 57.60 57.53 57.70 57.86 57.96 58.02 58.09 58.18 58.29 59.00 60.16 60.82 62.02 62.51 65.02 57.44 65.17 74.43 75.53 75.01 71.37 67.04 66.24 64.84 63.36 62.24 61.19 62.68 60.20 61.60 62.64 62.64 63.30 63.78 63.58 65.48 65.01 65.96 67.00 69.77 71.37 72.42 71.56 71.15
57.57 57.17 57.30 57.08 57.20 57.33 57.56 57.68 57.60 57.83 58.33 60.10 61.03 62.22 64.80 61.77 62.39 67.54 74.61 73.31 68.43 67.84 65.92 64.61 63.29 63.27 61.83 61.48 61.03 60.54 60.33 61.24 62.42 62.73 63.14 65.04 64.06 64.18 65.31 69.29 70.86 72.22 72.24 71.24 71.16
57.77 57.33 56.85 56.78 56.79 57.17 57.39 57.36 57.35 57.48 58.76 60.20 61.43 61.99 64.86 58.81 66.44 67.04 66.24 66.34 67.24 66.94 65.91 65.24 63.67 64.86 62.67 61.12 61.14 60.70 60.38 60.63 61.43 61.90 62.51 61.60 62.73 64.64 66.05 69.04 70.37 71.50 71.40 71.37 71.22
57.50 57.29 56.71 56.58 56.54 56.99 57.13 56.98 57.16 57.48 58.77 60.33 61.86 64.74 62.29 60.48 66.33 67.94 66.43 66.94 66.83 66.83 65.60 65.54 65.84 64.38 63.48 60.67 62.56 61.85 59.44 60.33 61.13 61.43 61.23 62.72 61.11 61.44 66.98 68.51 69.40 70.45 71.39 71.44 71.80
57.38 57.12 56.28 56.15 56.04 56.48 56.48 56.22 56.78 57.77 59.39 61.04 62.53 64.67 60.33 64.62 66.76 65.74 66.61 66.64 67.31 67.62 67.04 66.83 66.83 64.93 63.49 63.69 61.68 59.15 59.76 57.43 59.91 59.84 62.50 61.50 57.10 62.43 66.95 66.95 67.77 69.45 70.45 71.15 72.06
57.04 56.80 56.32 55.81 55.56 55.70 55.92 55.88 57.14 59.08 60.73 62.24 63.68 63.39 58.59 65.06 63.01 66.02 67.00 65.21 66.34 66.53 67.24 66.04 65.84 63.41 62.35 59.81 57.48 57.61 55.14 54.60 56.42 59.18 58.50 58.96 57.70 62.35 63.27 65.25 65.50 68.32 69.91 70.76 71.46
57.09 56.44 55.88 55.20 55.03 55.47 55.34 55.42 58.73 59.38 62.02 64.35 62.39 60.08 60.74 59.85 62.56 63.95 65.95 65.34 63.74 64.81 63.92 63.28 63.08 60.55 60.09 58.20 52.44 53.63 54.20 54.40 54.39 57.31 57.56 56.88 56.82 59.32 61.70 63.45 64.66 66.56 68.80 70.41 70.72
56.88 56.37 55.51 54.96 54.69 54.95 55.74 60.89 59.28 57.88 59.42 57.48 58.07 58.52 58.28 61.11 62.44 61.62 64.11 63.85 63.95 63.00 59.23 61.66 58.88 57.05 57.99 57.81 56.45 55.49 54.99 54.17 55.52 57.29 55.75 56.28 56.80 57.89 60.17 60.45 62.03 64.88 67.24 69.23 70.61
56.17 55.94 55.25 54.44 54.11 54.34 57.79 59.64 59.67 60.33 54.36 58.01 56.63 58.28 59.71 59.49 56.81 59.71 63.53 60.47 61.31 58.33 60.54 59.60 56.81 59.23 58.97 57.63 56.34 55.52 54.08 54.30 55.42 56.52 56.01 56.32 56.25 58.65 59.80 61.11 62.14 63.41 66.61 68.05 70.07
56.04 55.49 54.51 53.62 53.99 56.66 60.11 60.30 63.61 63.27 57.44 55.04 56.85 57.10 57.85 58.86 56.47 57.84 61.04 60.53 59.53 58.20 58.22 57.05 58.79 59.39 57.23 57.16 55.18 55.60 53.92 53.76 53.52 55.77 57.53 56.99 56.72 59.06 61.84 63.37 64.33 64.44 67.22 67.93 69.70
55.90 55.09 54.00 53.19 53.17 61.07 59.41 63.80 64.01 64.38 54.80 53.35 54.37 57.23 58.94 58.97 55.49 60.70 61.59 60.09 58.49 56.77 58.37 58.01 60.69 57.61 56.94 55.73 56.58 53.34 56.47 54.99 54.16 54.16 52.60 57.33 50.08 57.85 60.61 61.81 63.01 64.17 65.68 66.84 68.68
55.64 54.82 53.94 51.80 59.77 59.42 62.16 64.55 65.28 62.94 46.55 54.16 55.41 61.77 59.49 56.97 57.57 57.55 62.46 60.37 57.28 57.48 57.81 56.12 57.07 56.29 55.42 56.17 56.83 54.51 56.75 55.52 55.04 54.47 54.95 55.14 53.88 56.29 60.49 60.62 62.56 64.69 65.41 65.54 67.90
55.31 54.23 53.39 56.09 60.81 64.71 65.89 65.32 63.15 53.97 47.38 51.84 56.05 54.88 54.70 56.44 56.12 57.67 58.72 61.24 60.57 56.83 57.51 56.58 58.58 57.84 57.50 58.07 56.90 57.68 55.71 56.25 56.37 54.84 50.96 54.05 53.67 53.03 58.11 60.84 62.34 64.78 66.53 67.84 67.97
53.90 52.66 53.30 62.36 62.06 65.73 65.60 62.08 54.11 51.75 54.77 51.69 52.51 54.60 54.17 53.46 54.33 55.53 55.34 55.15 54.09 51.62 51.88 54.18 54.67 57.70 58.27 55.82 57.68 56.40 54.21 50.17 50.25 50.10 48.51 55.52 52.76 56.43 60.69 62.77 63.94 64.77 66.78 68.37 69.29
52.21 51.22 55.14 61.68 65.11 65.01 63.38 58.07 52.00 54.51 52.49 54.79 54.15 54.03 52.20 53.72 54.03 54.43 54.16 53.04 55.33 54.68 52.64 50.37 49.21 54.57 58.02 55.73 54.73 56.27 55.09 50.94 46.67 47.91 49.45 55.25 52.28 56.77 61.63 63.25 65.42 66.79 68.81 69.47 70.26
51.64 60.43 62.68 61.48 63.09 64.53 60.58 54.50 56.10 55.02 56.65 54.62 55.08 53.10 52.27 53.24 53.64 53.37 53.59 53.47 55.08 55.30 52.35 51.86 53.08 57.14 57.97 58.87 57.83 56.10 53.45 57.26 52.38 53.48 50.61 53.87 55.74 58.58 61.04 61.26 64.32 65.70 68.67 69.29 70.79
63.04 61.28 60.01 65.25 65.35 62.49 58.77 52.87 57.51 59.41 59.30 57.30 53.11 54.93 52.44 52.21 52.41 53.04 53.48 55.97 54.93 56.39 57.49 56.12 53.48 57.08 57.65 58.81 58.40 57.38 58.85 53.20 55.00 48.51 48.10 51.33 52.88 54.84 59.21 59.13 63.03 64.00 67.80 69.45 70.43
62.01 59.41 62.92 65.77 64.17 60.12 55.65 56.64 57.99 59.75 60.09 57.54 56.04 54.57 55.25 52.99 53.51 53.24 54.56 55.97 56.82 56.28 57.75 56.78 55.45 55.74 57.55 55.77 55.25 55.94 54.64 55.67 55.29 53.96 49.57 48.60 50.69 59.48 59.16 61.58 61.57 63.44 67.60 68.81 70.79
64.12 57.62 62.29 65.17 58.22 58.92 55.98 57.53 52.60 58.45 60.53 59.38 59.46 57.27 55.82 54.62 53.72 54.41 53.65 56.39 59.07 59.06 55.19 57.59 55.44 53.09 54.50 58.29 58.96 58.09 56.19 56.32 52.69 51.67 53.85 52.81 52.63 61.93 61.82 61.73 63.09 63.45 66.04 69.48 70.53
62.97 60.87 63.59 64.77 55.01 56.07 58.28 57.52 58.14 57.61 59.23 58.87 57.57 58.60 57.89 55.77 53.74 55.15 55.60 59.20 59.23 58.88 57.74 58.53 54.63 51.05 53.37 56.37 57.87 55.22 56.37 56.78 56.45 55.80 53.03 50.38 53.14 61.53 61.06 59.92 61.20 62.64 65.41 68.18 69.67
64.15 57.06 59.16 60.89 60.80 58.03 55.42 56.52 56.25 58.42 58.94 59.70 59.09 59.78 58.42 57.38 59.49 56.94 57.04 58.00 59.38 59.48 61.37 61.92 55.84 53.94 50.72 53.61 57.39 54.93 55.88 57.07 56.26 52.64 53.15 53.16 54.26 57.62 58.37 58.27 59.91 61.43 63.23 64.96 68.54
64.34 61.81 60.25 54.75 56.08 57.44 56.90 57.11 55.81 56.19 59.59 60.51 59.24 59.06 58.22 56.77 57.19 57.11 58.55 58.35 58.78 57.97 59.05 59.23 55.21 56.41 57.44 56.97 56.40 55.86 55.50 55.97 55.20 55.59 52.85 54.05 53.86 56.70 58.47 60.25 61.46 62.97 63.76 64.77 66.79
61.28 61.76 63.23 61.21 58.72 56.74 53.56 57.11 56.58 57.61 58.59 57.96 58.47 58.32 58.78 57.79 58.10 56.59 57.71 58.73 58.24 60.37 59.47 60.33 55.79 56.87 54.87 56.76 56.31 54.65 55.67 55.86 55.52 55.35 55.01 54.80 54.46 59.54 61.55 61.90 61.03 63.17 63.74 64.93 65.71
63.79 65.26 62.75 57.00 59.55 56.53 56.12 56.32 57.78 58.98 59.49 61.03 59.41 58.72 57.90 58.85 60.12 60.33 60.35 60.02 59.61 58.93 58.65 58.39 56.87 55.53 52.80 56.00 55.18 52.39 55.18 55.59 55.92 56.37 55.20 52.10 55.86 61.23 59.92 60.37 61.40 63.37 64.04 64.32 64.85
MSLP
1015.85 1015.65 1015.48 1015.39 1015.24 1015.01 1014.75 1014.48 1014.19 1013.86 1013.43 1013.00 1012.51 1011.92 1011.34 1010.72 1009.23 1007.86 1006.17 1005.71 1005.36 1005.35 1005.27 1003.26 1001.48 1001.30 1000.68 1000.02 1000.04 999.75 999.20 999.96 1000.70 1001.43 1002.28 1002.32 1002.39 1002.79 1003.04 1002.66 1003.56 1003.98 1003.75 1005.31 1006.90
1015.76 1015.51 1015.33 1015.17 1015.05 1014.87 1014.66 1014.43 1014.19 1013.86 1013.44 1012.98 1012.42 1011.81 1011.23 1010.79 1008.77 1006.10 1005.79 1005.28 1005.42 1005.36 1004.06 1002.30 1001.18 1000.48 999.57 999.64 999.56 998.92 1000.10 1000.66 1000.86 1001.14 1001.75 1002.19 1002.23 1002.26 1001.83 1001.84 1003.11 1004.23 1005.05 1006.02 1006.95
1015.67 1015.39 1015.17 1014.99 1014.85 1014.74 1014.53 1014.30 1014.08 1013.79 1013.38 1012.88 1012.28 1011.64 1011.09 1010.63 1007.57 1004.50 1005.24 1005.38 1005.34 1005.12 1003.71 1002.23 1001.19 1000.14 999.23 999.04 999.27 999.68 1000.36 1000.64 1001.31 1001.44 1001.53 1001.71 1001.58 1001.55 1001.48 1001.79 1002.53 1003.79 1005.34 1006.37 1006.90
1015.58 1015.26 1015.02 1014.85 1014.72 1014.60 1014.39 1014.18 1013.93 1013.62 1013.24 1012.72 1012.10 1011.48 1010.83 1009.33 1005.61 1004.60 1005.13 1005.29 1005.13 1004.56 1003.02 1001.45 1000.33 999.73 998.87 998.81 999.67 999.71 1000.61 1000.75 1001.26 1001.55 1001.35 1001.21 1001.60 1001.28 1001.90 1002.59 1002.72 1003.68 1005.22 1005.92 1006.51
1015.51 1015.16 1014.88 1014.71 1014.59 1014.43 1014.22 1014.04 1013.83 1013.54 1013.16 1012.62 1012.01 1011.51 1009.92 1007.37 1004.48 1004.54 1005.14 1004.88 1004.41 1003.40 1002.20 1001.31 1000.37 999.87 999.07 999.34 999.70 999.76 1000.49 1000.45 1000.99 1001.14 1000.92 1001.32 1001.44 1001.59 1001.38 1002.35 1002.80 1003.93 1005.02 1005.54 1006.02
1015.42 1015.03 1014.71 1014.54 1014.41 1014.24 1014.06 1013.87 1013.64 1013.40 1013.04 1012.53 1011.98 1011.56 1009.61 1005.66 1003.86 1004.17 1004.33 1004.04 1003.52 1002.77 1001.93 1001.29 1000.96 1000.86 999.79 999.65 999.80 1000.43 1000.56 1000.03 1000.21 1000.56 1000.68 1000.83 1000.81 1001.27 1001.14 1001.72 1002.69 1003.72 1004.44 1005.10 1005.57
1015.27 1014.87 1014.55 1014.35 1014.22 1014.06 1013.93 1013.76 1013.49 1013.21 1012.82 1012.37 1011.97 1011.17 1007.94 1004.59 1003.95 1003.88 1004.01 1003.44 1003.20 1002.63 1001.62 1001.79 1001.60 1000.90 1000.06 999.75 1000.45 1000.42 999.95 999.63 1000.01 1000.40 1000.49 1000.47 1000.16 1000.23 1000.92 1001.55 1002.35 1003.14 1003.74 1004.37 1005.01
1015.13 1014.71 1014.37 1014.15 1014.03 1013.88 1013.73 1013.56 1013.29 1012.97 1012.55 1012.10 1011.82 1010.31 1006.09 1003.93 1004.02 1004.11 1003.70 1003.21 1003.06 1002.71 1002.32 1002.09 1001.74 1000.89 1000.19 1000.19 1000.00 999.57 999.77 999.12 999.95 1000.34 1000.47 1000.48 999.48 999.71 1000.60 1001.20 1001.52 1002.44 1003.23 1003.76 1004.43
1015.00 1014.57 1014.21 1013.96 1013.84 1013.74 1013.59 1013.35 1012.92 1012.56 1012.21 1011.78 1011.01 1008.66 1004.72 1004.63 1004.27 1003.53 1003.13 1002.66 1002.50 1002.48 1002.41 1002.53 1001.64 1000.37 1000.18 999.29 998.74 998.94 998.63 999.46 999.60 1000.17 1000.12 1000.06 999.55 999.40 999.99 1000.35 1000.66 1001.58 1002.25 1003.11 1003.83
1014.86 1014.42 1014.07 1013.82 1013.67 1013.57 1013.39 1013.17 1012.57 1012.18 1011.56 1010.20 1008.98 1007.28 1004.35 1003.12 1002.93 1003.06 1003.16 1003.02 1002.49 1002.13 1002.11 1001.91 1000.79 999.91 999.13 998.43 998.34 998.70 998.57 999.23 999.56 999.73 1000.02 999.61 999.22 999.02 998.97 999.41 1000.10 1000.36 1001.23 1002.34 1003.00
1014.70 1014.25 1013.93 1013.69 1013.53 1013.42 1012.95 1011.88 1011.36 1010.14 1008.61 1005.77 1004.96 1003.98 1003.08 1002.89 1003.43 1003.44 1002.98 1002.99 1002.36 1001.91 1001.24 1001.10 1000.22 998.84 998.57 999.66 999.93 999.91 999.58 999.28 999.38 999.62 1000.01 999.55 999.12 998.82 998.70 998.79 999.09 999.88 1000.50 1001.20 1002.13
1014.53 1014.11 1013.82 1013.60 1013.46 1013.37 1012.90 1008.58 1006.47 1005.98 1005.64 1005.34 1004.67 1003.90 1003.72 1003.35 1002.48 1002.49 1002.52 1002.42 1001.97 1001.33 1000.97 1000.47 1000.14 999.28 1000.17 1000.50 1000.31 999.94 999.49 999.07 999.38 999.66 999.78 999.19 998.80 998.69 998.76 999.02 999.23 999.16 999.81 1000.30 1001.24
1014.33 1013.99 1013.73 1013.58 1013.44 1012.91 1009.86 1007.13 1006.53 1005.89 1003.89 1003.67 1003.59 1003.15 1002.85 1002.99 1001.79 1001.64 1002.25 1001.76 1001.20 1001.05 1000.39 1000.12 999.58 1000.21 1000.60 1000.24 999.98 999.14 998.90 999.66 999.84 999.50 998.86 998.64 998.52 998.62 999.14 999.10 999.18 999.29 999.55 1000.00 1000.69
1014.17 1013.85 1013.64 1013.51 1013.44 1008.86 1007.89 1006.81 1006.54 1006.26 1003.25 1002.60 1002.73 1002.41 1002.55 1002.20 1001.30 1001.08 1001.62 1001.11 1000.72 1000.39 1000.02 1000.12 999.71 1000.36 1000.54 1000.19 999.86 999.12 999.75 999.97 999.78 999.08 997.82 998.48 999.82 998.61 998.82 999.02 998.95 999.21 999.39 999.71 1000.27
1013.95 1013.62 1013.47 1013.70 1011.18 1007.51 1006.24 1006.34 1006.29 1006.11 1001.73 1001.45 1001.29 1001.71 1001.27 1001.10 1000.58 1001.27 1001.39 1001.11 1000.41 1000.22 1000.31 999.91 1000.11 1000.36 1000.48 999.88 999.81 999.74 1000.03 1000.10 999.88 999.15 998.07 997.86 998.48 999.21 998.65 998.60 998.80 999.08 999.43 999.32 999.41
1013.51 1013.30 1013.27 1012.29 1010.33 1006.79 1006.51 1006.33 1005.93 1003.98 1000.27 1000.24 1000.72 1001.11 1000.99 1000.70 1000.48 1001.00 1001.45 1001.43 1000.65 1000.41 1000.37 1000.09 1000.14 1000.22 999.99 999.75 1000.08 1000.14 999.97 999.57 999.01 998.62 997.75 997.70 998.04 999.70 997.98 998.77 999.08 999.37 999.56 999.94 999.60
1013.02 1012.85 1012.87 1009.55 1006.75 1006.56 1006.37 1005.70 1003.63 1000.65 999.38 999.77 999.85 1000.10 999.92 999.75 1000.12 1000.73 1000.84 1000.90 1000.43 1000.52 999.91 1000.02 999.98 1000.12 1000.37 999.88 999.67 999.61 998.80 998.08 997.83 997.24 998.39 997.82 998.03 998.89 998.68 999.14 999.39 999.68 999.86 1000.27 1000.06
1012.43 1012.28 1010.87 1009.15 1007.28 1006.99 1006.11 1004.45 1001.16 998.75 998.26 998.71 998.88 999.35 999.11 999.31 999.60 1000.06 1000.12 999.92 1000.03 999.41 998.39 998.39 998.44 999.05 999.13 999.57 999.06 998.30 997.99 997.44 996.83 997.22 998.12 997.72 997.90 998.78 999.06 999.22 999.62 999.86 1000.48 1000.90 1001.08
1012.25 1010.50 1008.47 1007.08 1007.77 1007.11 1005.18 1001.83 998.67 998.10 998.01 997.98 998.40 998.43 998.56 998.96 998.93 999.43 999.43 999.07 999.00 999.48 998.55 997.66 997.95 998.95 999.33 999.22 999.11 997.90 998.14 997.61 997.15 997.07 997.62 997.45 997.79 998.13 999.05 999.23 999.95 1000.23 1000.86 1001.86 1002.17
1010.37 1007.59 1006.27 1006.37 1006.84 1006.42 1004.12 1000.69 999.20 999.08 998.54 997.79 997.65 997.88 997.75 998.46 999.01 998.84 998.83 998.69 998.62 998.98 998.88 998.24 998.15 998.61 999.12 999.35 999.06 998.68 998.71 997.76 997.81 997.77 997.67 997.93 997.98 998.20 999.34 999.70 1000.16 1000.78 1001.75 1002.60 1003.62
1009.96 1005.56 1005.66 1006.20 1006.40 1005.05 1002.01 999.89 999.85 999.73 999.49 998.20 997.37 997.56 997.19 997.86 998.45 998.37 998.13 998.78 998.87 999.06 999.38 998.93 998.55 998.49 998.85 998.80 998.03 998.65 998.51 998.29 997.86 998.25 998.02 998.19 998.94 999.65 1000.07 1000.56 1001.06 1001.41 1002.49 1003.16 1003.64
1007.54 1004.24 1005.44 1005.79 1004.96 1002.94 1000.81 1000.34 1000.72 999.40 999.47 998.72 998.20 997.29 997.31 997.53 998.09 997.90 998.08 998.57 999.72 999.47 999.67 999.68 998.72 998.02 997.72 998.19 998.66 998.68 998.50 998.63 998.19 998.61 998.89 999.09 999.25 1000.44 1000.83 1001.20 1002.17 1002.49 1002.95 1003.94 1004.78
1006.64 1004.77 1005.39 1005.07 1002.85 1001.28 1000.66 1000.59 1000.26 999.48 998.96 998.82 998.26 997.87 997.54 997.84 998.27 998.32 998.69 1000.11 1000.65 1000.43 1000.26 999.83 999.67 998.46 997.72 997.85 998.75 999.00 999.08 998.93 998.91 998.68 998.95 999.33 999.31 1000.76 1001.14 1001.73 1002.46 1003.09 1003.63 1004.27 1005.16
1006.76 1003.94 1004.64 1004.56 1002.72 1001.11 1000.10 1000.19 999.95 1000.04 999.36 999.12 998.35 998.56 998.39 998.30 998.84 999.02 999.37 1000.68 1001.03 1000.77 1001.60 1001.55 1000.06 998.92 998.31 1000.01 1000.21 999.19 999.18 999.48 999.67 999.29 998.94 999.01 999.32 999.93 1000.81 1001.91 1003.09 1004.12 1004.70 1004.94 1005.55
1006.42 1002.59 1002.32 1002.64 1002.13 1001.26 1000.15 999.95 999.68 999.47 999.74 999.56 999.16 998.61 998.49 998.35 998.65 998.91 999.27 1000.73 1001.28 1002.07 1001.96 1001.31 1000.05 999.60 999.03 999.07 999.76 999.81 999.46 999.51 999.69 999.99 1000.15 1000.25 1000.41 1000.79 1001.71 1003.18 1004.44 1005.32 1005.43 1005.61 1005.96
1006.76 1004.37 1003.13 1001.71 1001.44 1001.35 1000.84 1000.24 999.71 999.27 999.49 999.32 999.11 998.88 998.94 998.71 998.78 998.78 999.47 1000.07 1000.13 1001.19 1001.27 1001.02 1000.61 1000.54 1000.20 1000.25 999.96 999.66 1000.03 1000.03 1000.04 1000.18 1000.29 1000.72 1001.06 1001.80 1003.06 1004.43 1005.02 1005.86 1006.12 1006.28 1006.65
1007.62 1006.09 1005.00 1002.37 1001.55 1001.11 1000.38 1000.45 1000.09 999.84 1000.51 999.84 999.35 999.48 999.71 1000.35 1000.38 1000.32 1000.45 1000.65 1000.59 1001.48 1001.12 1001.20 1001.27 1000.98 1000.39 1000.64 1000.37 999.82 1000.17 1000.40 1000.39 1000.55 1000.90 1001.06 1001.87 1003.24 1004.18 1004.99 1005.55 1006.24 1006.75 1006.93 1007.29
Wind_Speed
12 12 12 12 12 12 12 13 13 14 14 15 16 16 17 18 23 9 13 6 6 5 10 19 11 1 12 7 1 9 4 8 13 12 12 4 11 8 2 8 9 2 11 20 22
12 12 12 12 12 12 12 13 13 14 15 15 16 16 17 17 15 15 4 8 6 5 14 9 7 8 7 5 0 8 8 9 7 13 10 7 8 2 3 6 12 12 13 19 22
13 12 12 12 12 12 12 13 13 13 14 16 17 17 17 16 13 4 6 6 6 8 16 12 10 11 6 6 6 8 8 7 6 10 5 6 7 3 6 14 12 13 14 18 20
13 12 11 12 12 12 12 13 13 13 15 16 17 17 18 11 6 10 6 3 8 11 14 11 8 12 4 3 2 12 8 5 4 5 2 5 4 7 7 7 9 15 17 18 18
13 12 11 11 11 12 12 12 12 13 14 15 17 16 13 11 8 11 3 8 11 11 8 7 8 8 6 4 4 8 5 5 7 1 1 6 0 6 3 8 11 16 16 17 16
13 12 11 11 11 11 12 12 12 13 14 15 16 18 9 16 8 6 2 6 10 10 4 7 6 10 7 4 7 2 2 5 5 4 1 3 3 2 10 10 13 15 16 16 16
13 12 11 10 10 11 11 12 13 13 14 14 13 8 12 10 1 7 6 8 3 10 8 0 8 14 4 9 3 7 11 4 8 6 4 6 10 6 10 9 12 13 14 15 15
13 12 11 10 10 10 11 12 13 14 14 14 10 11 13 8 5 7 10 11 7 7 9 5 8 12 12 0 10 10 8 3 10 2 6 10 1 12 11 7 12 13 13 13 16
14 12 10 10 9 10 10 13 16 14 12 11 10 11 13 8 13 14 11 11 11 7 6 6 14 12 8 16 14 6 7 5 5 3 5 4 10 6 4 8 7 11 16 13 14
13 12 10 9 9 9 11 10 9 11 9 10 10 9 10 14 14 6 10 7 10 11 11 13 13 13 11 12 9 9 8 5 2 4 8 11 7 6 7 11 9 9 13 15 15
13 11 11 9 8 8 11 7 8 9 14 9 10 12 4 4 2 11 12 14 11 11 15 13 12 13 9 10 9 5 9 9 4 3 5 11 10 8 7 3 8 9 12 17 16
13 12 10 8 7 8 9 15 10 10 12 17 5 10 4 4 10 15 11 14 16 16 16 11 14 5 6 4 9 10 8 6 3 3 8 9 8 5 4 3 3 6 11 15 16
13 11 9 7 6 6 13 10 5 7 9 16 12 13 10 10 11 15 15 17 15 18 17 14 8 10 5 11 10 15 2 10 11 10 14 8 9 9 8 4 6 5 10 13 15
13 11 9 5 5 10 13 12 7 6 8 14 12 10 8 10 7 14 18 12 11 18 12 17 16 2 9 11 10 15 10 8 10 13 5 2 3 10 10 12 10 12 12 13 14
13 10 8 9 13 10 7 4 7 6 8 16 15 9 12 12 16 9 14 7 11 11 6 10 12 9 13 14 5 12 7 8 9 13 13 9 6 8 15 12 8 7 3 6 14
13 10 6 8 8 7 3 3 7 10 5 11 11 14 14 13 10 13 11 10 7 7 11 17 3 10 14 10 4 10 10 15 12 12 9 5 6 3 7 9 6 4 2 2 6
13 8 8 9 1 1 5 8 9 11 17 12 17 18 17 12 10 15 16 16 10 10 14 16 16 12 14 15 14 10 18 10 10 8 6 7 8 10 9 9 9 5 7 6 1
12 4 14 10 5 7 6 11 13 10 14 16 14 16 13 13 13 15 14 14 15 11 15 10 17 20 19 13 20 14 16 8 6 7 9 6 4 5 6 5 7 6 11 7 8
8 7 8 8 10 6 10 13 3 9 7 12 16 15 13 12 5 12 15 14 13 12 15 7 5 4 3 10 13 9 9 10 12 8 7 2 7 8 9 6 7 6 13 8 10
7 8 8 8 9 8 10 14 4 9 6 8 13 13 13 16 10 12 13 11 8 9 16 2 5 9 9 7 10 15 11 7 5 2 8 7 4 10 7 5 7 6 10 9 8
8 7 8 9 7 8 11 4 3 6 7 8 11 10 9 14 16 14 14 5 9 13 10 13 10 9 7 11 11 10 13 9 9 9 8 9 8 7 5 7 4 6 9 5 9
10 5 9 8 9 10 12 2 4 5 8 6 9 7 9 14 14 12 4 2 4 5 12 13 11 11 14 7 6 12 15 11 9 6 9 7 4 11 8 7 5 5 4 9 7
7 7 7 9 8 9 10 6 7 7 8 9 10 7 2 7 7 6 5 9 2 9 5 3 9 13 12 15 13 11 15 11 16 12 12 9 3 7 8 2 6 9 8 3 1
8 6 7 9 14 14 13 13 12 6 4 6 3 6 7 4 5 6 6 3 3 5 9 5 15 18 12 3 12 8 9 8 13 12 14 13 18 4 4 4 6 7 10 10 4
7 2 6 9 12 12 7 11 12 9 9 8 7 14 14 9 9 9 8 9 6 6 5 10 13 16 13 9 6 15 16 14 13 14 15 17 18 14 10 10 8 6 7 5 3
7 6 4 7 6 11 7 10 14 10 5 13 11 10 4 7 1 5 2 2 5 11 11 9 12 11 14 16 19 16 15 17 16 18 17 16 14 9 10 4 3 3 5 1 3
6 5 7 5 9 9 11 15 12 3 3 12 8 7 7 10 7 7 5 7 5 7 10 8 12 13 15 14 19 15 15 12 14 11 12 14 5 6 1 1 2 1 1 2 2
Wind_Direction
324 321 318 318 318 319 322 324 328 329 330 327 322 317 317 320 305 236 248 3 328 325 307 271 245 206 225 140 168 229 51 71 70 100 103 147 94 75 43 84 62 333 72 146 147
323 318 314 312 313 315 317 321 324 326 326 325 319 317 317 322 290 262 72 31 342 305 285 327 331 263 177 160 162 71 61 65 68 82 96 97 70 67 190 136 109 90 95 133 155
324 317 312 309 309 311 314 317 320 322 321 322 318 316 314 314 272 135 49 25 330 282 272 291 269 276 157 290 20 45 59 91 78 53 63 95 133 237 156 42 65 124 139 155 159
326 319 310 305 306 306 310 313 316 318 319 320 318 316 312 274 229 74 66 328 293 284 274 274 256 239 264 104 62 106 69 36 41 86 140 46 70 77 24 70 67 109 146 161 168
329 321 311 305 302 303 304 307 311 313 314 316 315 319 306 229 257 109 198 208 257 270 283 315 306 293 277 357 146 4 44 126 128 261 277 78 296 18 153 126 108 123 154 164 176
329 322 313 303 299 298 298 303 305 306 307 310 311 315 245 255 79 138 213 227 253 254 247 290 6 334 316 42 359 83 269 295 115 126 225 289 321 277 113 134 128 143 157 170 179
330 325 316 304 295 293 293 296 297 297 298 300 305 294 263 265 305 179 232 246 274 279 257 4 329 284 294 153 59 285 258 185 72 50 328 311 227 175 103 150 150 161 168 171 181
332 329 321 306 293 288 289 291 289 287 289 286 291 268 261 195 252 230 238 233 225 241 279 331 302 283 273 355 204 246 237 266 95 276 120 277 334 113 135 175 163 175 166 175 181
334 332 323 310 293 287 287 288 278 277 266 272 251 232 248 123 212 222 222 234 198 215 229 289 262 285 185 239 205 209 150 42 133 146 297 227 318 109 158 163 202 173 167 185 178
333 332 326 314 294 284 282 273 314 280 223 234 267 250 244 207 199 198 205 270 223 213 219 230 244 231 223 247 22 48 337 69 284 50 329 296 269 251 228 171 189 187 178 185 182
333 331 325 312 293 287 289 204 197 190 211 213 185 240 117 68 171 216 200 211 233 218 226 197 258 237 48 28 340 304 289 318 313 350 280 290 298 264 268 254 190 194 185 181 187
333 333 327 311 294 295 276 244 27 352 196 233 249 271 265 287 199 202 197 215 208 219 225 188 245 32 40 294 289 294 276 286 10 32 264 258 288 327 44 20 280 209 186 187 185
331 332 330 311 298 250 231 232 333 310 249 179 214 214 195 207 222 184 197 208 205 228 213 238 192 66 256 258 245 270 328 7 329 295 244 257 227 168 115 131 129 203 176 183 183
328 330 321 315 276 201 217 222 237 287 252 145 196 212 180 229 226 161 207 197 203 218 217 220 264 108 256 247 274 294 27 331 309 293 359 214 210 139 142 108 102 144 175 174 195
320 315 303 248 319 215 65 183 257 238 223 148 159 114 178 220 121 187 202 223 222 233 268 212 231 237 242 261 10 300 5 295 292 276 266 205 93 280 164 105 103 100 81 190 192
315 307 283 209 231 300 258 251 230 232 150 151 142 179 181 216 187 146 176 249 283 238 213 271 205 272 248 267 265 283 280 257 232 250 263 101 255 291 344 75 58 119 144 28 284
309 285 232 315 212 107 263 210 225 257 139 149 168 170 193 173 157 173 190 197 208 209 222 214 241 223 235 262 246 229 253 250 231 214 137 95 301 131 96 82 53 33 47 60 45
314 255 207 271 316 279 231 230 253 105 188 158 169 176 201 163 169 184 190 203 222 261 278 207 197 212 212 229 264 241 276 281 253 274 92 130 107 26 68 84 57 62 86 70 75
318 201 220 203 219 260 245 233 20 178 119 156 161 184 195 176 203 198 213 219 192 222 266 192 146 86 246 257 246 233 246 359 313 200 239 62 134 203 106 86 68 60 83 65 71
262 199 169 145 181 237 245 267 74 13 314 184 186 202 186 183 210 205 184 209 211 207 257 324 171 193 144 211 231 274 337 255 320 350 287 155 290 87 84 39 54 55 39 118 80
248 211 115 175 200 231 243 146 151 171 243 228 246 191 224 178 215 193 175 112 225 176 229 266 259 149 181 215 211 192 233 241 285 319 318 290 107 77 56 45 7 338 97 14 80
273 200 142 181 213 230 241 139 23 237 181 232 295 257 251 167 209 200 199 145 76 283 206 235 289 241 218 77 325 298 308 297 272 240 255 315 335 75 58 53 39 338 101 70 345
252 103 159 220 230 206 242 216 239 213 195 198 219 258 161 187 204 243 184 67 203 239 337 301 239 254 237 195 198 241 248 251 282 299 282 274 260 137 135 88 1 356 344 60 122
279 157 157 214 270 288 201 210 200 210 286 266 287 211 210 160 248 182 153 119 197 251 24 307 270 279 298 203 258 250 226 251 281 287 304 304 319 176 36 37 51 350 321 304 67
246 309 138 187 224 238 259 214 221 174 237 215 221 212 208 199 195 191 147 135 179 132 218 247 271 277 303 302 259 287 293 291 271 276 275 299 306 320 6 40 28 334 291 316 41
309 329 195 305 200 213 142 226 233 195 206 193 246 217 265 277 265 174 210 256 204 169 240 254 274 283 285 291 288 261 276 287 280 278 279 289 287 29 63 91 79 45 328 338 85
8 256 277 156 210 213 213 227 221 201 226 297 230 176 191 52 26 17 336 329 352 269 285 286 289 292 278 282 294 279 270 290 294 294 310 296 358 52 231 120 18 257 257 294 260